Regional Weather Roundup
Issued by NWS

Home | Current Version | Previous Version | Text Only | Print | Product List | Glossary On
Versions: 1 2 3 4 5 6 7 8 9 10 11 12 13 14 15 16 17 18 19 20 21 22 23 24 25 26 27 28 29 30 31 32 33 34 35 36 37 38 39 40 41 42 43 44 45 46 47 48 49 50
000
ASUS43 KOAX 181610
RWRNE

WEATHER ROUNDUP FOR NEBRASKA
NATIONAL WEATHER SERVICE OMAHA NE
1100 AM CDT THU SEP 18 2014

NOTES: SATELLITE DATA IS BEING USED TO AUGMENT CLOUD COVER ABOVE
       12000 FEET.
       "FAIR" INDICATES FEW OR NO CLOUDS BELOW 12,000 FEET WITH NO
       SIGNIFICANT WEATHER AND/OR OBSTRUCTIONS TO VISIBILITY.

  * THESE STATIONS DO NOT REPORT WEATHER SUCH AS RAIN...SNOW OR FOG.

NEZ001>004-019>022-054>056-181700-
NEBRASKA PANHANDLE

CITY           SKY/WX    TMP DP  RH WIND       PRES   REMARKS
SCOTTSBLUFF    MOSUNNY   62  56  80 SE5       29.97F
ALLIANCE       SUNNY     69  60  73 S14       29.96F
CHADRON        SUNNY     71  57  61 S8        29.90F
KIMBALL        SUNNY     76  43  30 S6        30.00S
SIDNEY         SUNNY     65  57  75 S10       30.02S
$$

NEZ057>060-069>072-079>082-181700-
SOUTHWEST NEBRASKA

CITY           SKY/WX    TMP DP  RH WIND       PRES   REMARKS
NORTH PLATTE   CLOUDY    62  61  96 SE7       30.00R FOG
IMPERIAL       CLOUDY    64  62  93 SE8       30.00R
LEXINGTON      MOSUNNY   69  61  77 SE14      29.99S
MCCOOK         FOG       63  62  97 SE9       29.99S VSB 1
OGALLALA       CLOUDY    65  64  94 S10       29.99S
$$

NEZ005>010-023>029-035>040-094-181700-
NORTH CENTRAL NEBRASKA

CITY           SKY/WX    TMP DP  RH WIND       PRES   REMARKS
VALENTINE      MOSUNNY   72  58  61 S17G25    29.94S
AINSWORTH      SUNNY     69  58  68 S18       29.97S
BROKEN BOW     MOSUNNY   68  59  73 S14G25    30.00S
O`NEILL        CLOUDY    65  63  93 S13G21    30.01S
ORD            CLOUDY    65  59  81 SE12      30.00S
THEDFORD       PTSUNNY   70  62  75 S14       29.98F
$$

NEZ041-046>049-061>064-073>077-083>087-181700-
SOUTH CENTRAL NEBRASKA

CITY           SKY/WX    TMP DP  RH WIND       PRES   REMARKS
GRAND ISLAND   PTSUNNY   69  60  73 SE10      30.01S
AURORA         MOSUNNY   66  66 100 SE14      30.01S
HASTINGS       SUNNY     68  58  70 SE13      30.00S
HEBRON         SUNNY     71  61  70 SE12      30.00F
HOLDREGE       MOSUNNY   67  60  79 SE13      30.00R
KEARNEY *      SUNNY     70  59  68 SE16      30.00S
YORK           MOSUNNY   68  63  83 SE10      30.02S
$$

NEZ011>018-030>034-042>045-181700-
NORTHEAST NEBRASKA

CITY           SKY/WX    TMP DP  RH WIND       PRES   REMARKS
NORFOLK        SUNNY     69  60  73 SE20      30.02S
ALBION         CLOUDY    64  62  94 S12G18    30.03R
BLAIR          MOSUNNY   68  59  74 SE8       30.05R
COLUMBUS *     CLOUDY    66  57  72 S10       30.04S
FREMONT        MOSUNNY   68  61  77 SE8       30.04S
TEKAMAH        PTSUNNY   65  59  81 S9        30.05S
WAYNE          PTSUNNY   68  62  79 S12G17    30.03S
$$

NEZ050>053-065>068-078-088>093-181700-
SOUTHEAST NEBRASKA

CITY           SKY/WX    TMP DP  RH WIND       PRES   REMARKS
LINCOLN        MOSUNNY   69  61  75 SE9       30.03S
OMAHA EPPLEY   MOSUNNY   68  58  70 SE8       30.04S
BEATRICE       MOSUNNY   70  61  73 SE12      30.01F
FALLS CITY     CLOUDY    64  61  90 SE6       30.03R
NEBRASKA CITY  SUNNY     69  58  69 SE5       30.03S
PLATTSMOUTH    SUNNY     69  57  66 SE8       30.03S
$$

NEZ044-045-051>053-067-181700-
OMAHA AREA

CITY           SKY/WX    TMP DP  RH WIND       PRES   REMARKS
OMAHA EPPLEY   MOSUNNY   68  58  70 SE8       30.04S
BLAIR          MOSUNNY   68  59  74 SE8       30.05R
FREMONT        MOSUNNY   68  61  77 SE8       30.04S
MILLARD        MOSUNNY   68  60  75 SE6       30.04R
PLATTSMOUTH    SUNNY     69  57  66 SE8       30.03S
WAHOO          CLOUDY    68  60  76 SE9       30.04S
$$



USA.gov is the U.S. government's official web portal to all federal, state and local government web resources and services.